When you browse on this site, cookies collect data to enhance your experience and personalize the content and advertising you see.
Visit our Privacy Policy to learn more. By continuing to use the site, you agree to this use of cookies and data.
  • In Hungary
  • List of Countries
  • For 7 days
  • Water Temperature
  • Satellite Maps
  • Weather Map
  • News
  • Weather Widgets
  • user-avatar
    Login

    Hourly Weather Zielonki

    Today, 25 May, Saturday

    Time Temperature Precipitation Wind Pressure Humidity
    00:00 +11°C° 0 mm 1 mps 738 mmHg 91%
    01:00 +10°C° 0 mm 2 mps 738 mmHg 92%
    02:00 +10°C° 0 mm 2 mps 738 mmHg 92%
    03:00 +10°C° 0 mm 2 mps 738 mmHg 92%
    04:00 +9°C° 0 mm 2 mps 739 mmHg 92%
    05:00 +12°C° 0 mm 2 mps 739 mmHg 87%
    06:00 +14°C° 0 mm 2 mps 739 mmHg 83%
    07:00 +14°C° 0 mm 3 mps 739 mmHg 75%
    08:00 +17°C° 0 mm 3 mps 739 mmHg 68%
    09:00 +18°C° 0 mm 3 mps 739 mmHg 61%
    10:00 +20°C° 0 mm 3 mps 739 mmHg 55%
    11:00 +20°C° 0 mm 3 mps 739 mmHg 54%
    12:00 +21°C° 0 mm 2 mps 739 mmHg 53%
    13:00 +23°C° 0 mm 2 mps 739 mmHg 52%
    14:00 +23°C° 0 mm 2 mps 739 mmHg 54%
    15:00 +22°C° 0 mm 3 mps 738 mmHg 56%
    16:00 +22°C° 0 mm 3 mps 738 mmHg 58%
    17:00 +20°C° 0.1 mm 2 mps 738 mmHg 64%
    18:00 +19°C° 0.1 mm 2 mps 738 mmHg 69%
    19:00 +18°C° 0.1 mm 1 mps 738 mmHg 75%
    20:00 +16°C° 0 mm 1 mps 739 mmHg 78%
    21:00 +15°C° 0 mm 1 mps 739 mmHg 82%
    22:00 +14°C° 0 mm 1 mps 739 mmHg 85%
    23:00 +14°C° 0 mm 1 mps 740 mmHg 86%

    Tomorrow, 26 May, Sunday

    Time Temperature Precipitation Wind Pressure Humidity
    00:00 +13°C° 0 mm 1 mps 740 mmHg 87%
    01:00 +13°C° 0 mm 1 mps 740 mmHg 88%
    02:00 +13°C° 0 mm 1 mps 740 mmHg 88%
    03:00 +12°C° 0 mm 1 mps 740 mmHg 89%
    04:00 +12°C° 0 mm 1 mps 740 mmHg 89%
    05:00 +14°C° 0 mm 1 mps 740 mmHg 86%
    06:00 +15°C° 0 mm 2 mps 740 mmHg 83%
    07:00 +17°C° 0 mm 2 mps 740 mmHg 80%
    08:00 +18°C° 0 mm 2 mps 740 mmHg 76%
    09:00 +19°C° 0 mm 2 mps 740 mmHg 72%
    10:00 +21°C° 0 mm 3 mps 740 mmHg 68%
    11:00 +21°C° 0.1 mm 3 mps 739 mmHg 65%
    12:00 +22°C° 0.1 mm 3 mps 739 mmHg 63%
    13:00 +24°C° 0.1 mm 3 mps 739 mmHg 60%
    14:00 +22°C° 0.4 mm 3 mps 739 mmHg 63%
    15:00 +22°C° 0.4 mm 3 mps 739 mmHg 65%
    16:00 +22°C° 0.4 mm 3 mps 739 mmHg 68%
    17:00 +21°C° 0.7 mm 3 mps 739 mmHg 73%
    18:00 +19°C° 0.7 mm 3 mps 738 mmHg 79%
    19:00 +18°C° 0.7 mm 2 mps 738 mmHg 84%
    20:00 +17°C° 0 mm 2 mps 739 mmHg 86%
    21:00 +16°C° 0 mm 2 mps 739 mmHg 88%
    22:00 +15°C° 0 mm 2 mps 739 mmHg 90%
    23:00 +15°C° 0 mm 2 mps 739 mmHg 91%

    Day after tomorrow, 27 May, Monday

    Time Temperature Precipitation Wind Pressure Humidity
    00:00 +15°C° 0 mm 2 mps 739 mmHg 91%
    01:00 +14°C° 0 mm 2 mps 739 mmHg 91%
    02:00 +14°C° 0 mm 2 mps 739 mmHg 91%
    03:00 +14°C° 0 mm 2 mps 738 mmHg 91%
    04:00 +14°C° 0 mm 2 mps 738 mmHg 91%
    05:00 +15°C° 0 mm 2 mps 738 mmHg 87%
    06:00 +17°C° 0 mm 2 mps 738 mmHg 84%
    07:00 +19°C° 0 mm 2 mps 738 mmHg 80%
    08:00 +20°C° 0.1 mm 2 mps 738 mmHg 75%
    09:00 +22°C° 0.1 mm 3 mps 738 mmHg 70%
    10:00 +24°C° 0.1 mm 3 mps 738 mmHg 64%
    11:00 +25°C° 0.7 mm 4 mps 738 mmHg 64%
    12:00 +25°C° 0.7 mm 4 mps 738 mmHg 64%
    13:00 +25°C° 0.7 mm 4 mps 738 mmHg 64%
    14:00 +23°C° 0.3 mm 4 mps 738 mmHg 68%
    15:00 +24°C° 0.3 mm 3 mps 737 mmHg 72%
    16:00 +23°C° 0.3 mm 2 mps 737 mmHg 75%
    17:00 +21°C° 0 mm 2 mps 737 mmHg 77%
    18:00 +20°C° 0 mm 2 mps 737 mmHg 79%
    19:00 +20°C° 0 mm 1 mps 737 mmHg 80%
    20:00 +19°C° 0 mm 1 mps 737 mmHg 83%
    21:00 +18°C° 0 mm 1 mps 737 mmHg 85%
    22:00 +18°C° 0 mm 1 mps 737 mmHg 88%
    23:00 +18°C° 0.2 mm 1 mps 736 mmHg 89%

    28 May, Tuesday

    Time Temperature Precipitation Wind Pressure Humidity
    00:00 +18°C° 0.2 mm 1 mps 736 mmHg 90%
    01:00 +18°C° 0.2 mm 1 mps 736 mmHg 92%
    02:00 +18°C° 0.5 mm 1 mps 735 mmHg 93%
    03:00 +18°C° 0.5 mm 1 mps 735 mmHg 94%
    04:00 +18°C° 0.5 mm 1 mps 735 mmHg 95%
    05:00 +19°C° 0.1 mm 1 mps 735 mmHg 91%
    06:00 +20°C° 0.1 mm 1 mps 734 mmHg 88%
    07:00 +21°C° 0.1 mm 1 mps 734 mmHg 85%
    08:00 +21°C° 0.3 mm 2 mps 734 mmHg 78%
    09:00 +24°C° 0.3 mm 2 mps 734 mmHg 72%
    10:00 +25°C° 0.3 mm 3 mps 734 mmHg 65%
    11:00 +25°C° 0 mm 3 mps 733 mmHg 62%
    12:00 +26°C° 0 mm 2 mps 733 mmHg 59%
    13:00 +26°C° 0 mm 2 mps 732 mmHg 56%
    14:00 +25°C° 0.5 mm 3 mps 732 mmHg 64%
    15:00 +22°C° 0.5 mm 3 mps 732 mmHg 72%
    16:00 +21°C° 0.5 mm 4 mps 731 mmHg 80%
    17:00 +20°C° 0.1 mm 3 mps 731 mmHg 81%
    18:00 +19°C° 0.1 mm 2 mps 731 mmHg 82%
    19:00 +20°C° 0.1 mm 1 mps 731 mmHg 83%
    20:00 +19°C° 1 mm 1 mps 731 mmHg 85%
    21:00 +18°C° 1 mm 1 mps 731 mmHg 87%
    22:00 +16°C° 1 mm 1 mps 731 mmHg 89%
    23:00 +16°C° 0.2 mm 2 mps 731 mmHg 91%

    29 May, Wednesday

    Time Temperature Precipitation Wind Pressure Humidity
    00:00 +15°C° 0.2 mm 2 mps 731 mmHg 93%
    01:00 +14°C° 0.2 mm 3 mps 732 mmHg 95%
    02:00 +14°C° 0 mm 3 mps 732 mmHg 95%
    03:00 +14°C° 0 mm 3 mps 732 mmHg 95%
    04:00 +13°C° 0 mm 3 mps 732 mmHg 95%
    05:00 +13°C° 0.1 mm 3 mps 733 mmHg 95%
    06:00 +13°C° 0.1 mm 4 mps 733 mmHg 94%
    07:00 +12°C° 0.1 mm 4 mps 734 mmHg 93%
    08:00 +12°C° 0.1 mm 4 mps 734 mmHg 92%
    09:00 +12°C° 0.1 mm 4 mps 735 mmHg 90%
    10:00 +12°C° 0.1 mm 5 mps 735 mmHg 89%
    11:00 +12°C° 0.1 mm 5 mps 736 mmHg 89%
    12:00 +12°C° 0.1 mm 5 mps 736 mmHg 88%
    13:00 +12°C° 0.1 mm 5 mps 737 mmHg 88%
    14:00 +12°C° 0 mm 4 mps 737 mmHg 87%
    15:00 +12°C° 0 mm 4 mps 738 mmHg 86%
    16:00 +12°C° 0 mm 4 mps 738 mmHg 85%
    17:00 +12°C° 0.1 mm 4 mps 739 mmHg 86%
    18:00 +11°C° 0.1 mm 4 mps 739 mmHg 87%
    19:00 +11°C° 0.1 mm 3 mps 740 mmHg 88%
    20:00 +11°C° 0.5 mm 3 mps 740 mmHg 89%
    21:00 +10°C° 0.5 mm 3 mps 741 mmHg 90%
    22:00 +10°C° 0.5 mm 2 mps 741 mmHg 91%
    23:00 +9°C° 0.8 mm 2 mps 741 mmHg 91%

    30 May, Thursday

    Time Temperature Precipitation Wind Pressure Humidity
    00:00 +9°C° 0.8 mm 2 mps 742 mmHg 91%
    01:00 +8°C° 0.8 mm 2 mps 742 mmHg 90%
    02:00 +8°C° 0.8 mm 2 mps 743 mmHg 90%
    03:00 +8°C° 0.8 mm 2 mps 743 mmHg 91%
    04:00 +7°C° 0.8 mm 2 mps 744 mmHg 91%
    05:00 +7°C° 1.1 mm 2 mps 744 mmHg 91%
    06:00 +7°C° 1.1 mm 2 mps 745 mmHg 91%
    07:00 +7°C° 1.1 mm 2 mps 745 mmHg 91%
    08:00 +8°C° 0.2 mm 2 mps 746 mmHg 89%
    09:00 +9°C° 0.2 mm 2 mps 746 mmHg 87%
    10:00 +9°C° 0.2 mm 2 mps 746 mmHg 84%
    11:00 +10°C° 0 mm 2 mps 746 mmHg 81%
    12:00 +12°C° 0 mm 2 mps 746 mmHg 78%
    13:00 +12°C° 0 mm 2 mps 746 mmHg 74%
    14:00 +13°C° 0 mm 2 mps 746 mmHg 71%
    15:00 +13°C° 0 mm 2 mps 746 mmHg 68%
    16:00 +14°C° 0 mm 2 mps 745 mmHg 65%
    17:00 +13°C° 0 mm 1 mps 745 mmHg 69%
    18:00 +13°C° 0 mm 1 mps 745 mmHg 72%
    19:00 +12°C° 0 mm 1 mps 745 mmHg 76%
    20:00 +11°C° 0 mm 1 mps 745 mmHg 79%
    21:00 +10°C° 0 mm 1 mps 745 mmHg 82%
    22:00 +9°C° 0 mm 1 mps 745 mmHg 85%
    23:00 +8°C° 0 mm 1 mps 745 mmHg 86%
    Show more